Puyallup, WA
on Wednesday, January 9, 2013

Wednesday
Previous Day Next Day
Daily Summary
 ActualAverage (KSEA)Record (KSEA)
Temperature
Mean Temperature °F 42°F  
Max Temperature 55°F 46°F 56°F (2003)
Min Temperature 32°F 37°F 13°F (1949)
Degree Days
Heating Degree Days 22 23  
Month to date heating degree days 215  
Since 1 July heating degree days 2153  
Cooling Degree Days 0 0  
Month to date cooling degree days 0  
Year to date cooling degree days 0  
Moisture
Dew Point 36°F   
Average Humidity 89    
Maximum Humidity 100    
Minimum Humidity 58    
Precipitation
Precipitation 0.47 in 0.19 in 2.83 in (1990)
Month to date precipitation 1.69  
Year to date precipitation 1.69  
Snow
Snow 0.00 in in 2.00 in (1963)
Month to date snowfall  
Since 1 July snowfall  
Snow Depth in   
Wind
Wind Speed 6 mph   
Max Wind Speed 14 mph   
Max Gust Speed 24 mph   
Visibility 10 miles   
Events Rain , Snow   

Key: T is trace of precipitation, MM is missing value
Source: NWS Daily Summary
Time(PST)TemperatureDew PointHumidity Pressure Visibility Wind DirectionWind SpeedGust SpeedPrecipitationEvents Conditions
12:15 AM 55.4°F 41.0°F 58% 29.74 in 10.0 miles SSW 8.1 mph 23.0 mph N/A   Scattered Clouds
12:35 AM 55.4°F 41.0°F 58% 29.74 in 10.0 miles SSW 13.8 mph 20.7 mph N/A   Mostly Cloudy
12:55 AM 55.4°F 41.0°F 58% 29.74 in 10.0 miles SW 11.5 mph 19.6 mph N/A   Mostly Cloudy
1:15 AM 53.6°F 41.0°F 62% 29.76 in 10.0 miles SW 10.4 mph 24.2 mph N/A   Overcast
1:35 AM 53.6°F 41.0°F 62% 29.75 in 10.0 miles SW 8.1 mph 21.9 mph N/A Rain Light Rain
1:55 AM 53.6°F 41.0°F 62% 29.74 in 10.0 miles SW 8.1 mph - N/A   Overcast
2:15 AM 53.6°F 39.2°F 58% 29.73 in 10.0 miles SSW 11.5 mph 19.6 mph N/A   Overcast
2:35 AM 53.6°F 39.2°F 58% 29.72 in 10.0 miles SSW 8.1 mph 17.3 mph N/A   Mostly Cloudy
2:55 AM 53.6°F 39.2°F 58% 29.72 in 10.0 miles SW 9.2 mph 16.1 mph N/A   Mostly Cloudy
3:15 AM 53.6°F 41.0°F 62% 29.72 in 10.0 miles NW 3.5 mph - N/A   Overcast
3:35 AM 44.6°F 44.6°F 100% 29.72 in 10.0 miles NW 10.4 mph 17.3 mph N/A   Mostly Cloudy
3:55 AM 44.6°F 42.8°F 93% 29.72 in 10.0 miles NW 8.1 mph - N/A   Mostly Cloudy
4:15 AM 42.8°F 41.0°F 93% 29.72 in 10.0 miles WNW 8.1 mph - N/A   Scattered Clouds
4:35 AM 41.0°F 41.0°F 100% 29.72 in 10.0 miles Calm Calm - N/A   Scattered Clouds
4:55 AM 41.0°F 41.0°F 100% 29.70 in 4.0 miles West 3.5 mph - 0.01 in Rain Light Rain
5:15 AM 41.0°F 41.0°F 100% 29.71 in 3.0 miles Calm Calm - 0.04 in Rain Rain
5:35 AM 39.2°F 39.2°F 100% 29.70 in 4.0 miles Calm Calm - 0.09 in Rain Rain
5:55 AM 39.2°F 39.2°F 100% 29.71 in 5.0 miles WNW 5.8 mph - 0.15 in Rain Rain
6:15 AM 39.2°F 37.4°F 93% 29.72 in 5.0 miles Calm Calm - 0.04 in Rain Rain
6:35 AM 37.4°F 37.4°F 100% 29.73 in 6.0 miles West 3.5 mph - 0.11 in Rain Light Rain
6:55 AM 35.6°F 35.6°F 100% 29.74 in - Calm Calm - 0.18 in   Mostly Cloudy
7:15 AM 35.6°F 35.6°F 100% 29.74 in - Calm Calm - 0.03 in   Mostly Cloudy
7:35 AM 35.6°F 35.6°F 100% 29.75 in - Calm Calm - 0.06 in Snow Heavy Snow
7:55 AM 33.8°F 33.8°F 100% 29.75 in - Calm Calm - 0.08 in Snow Heavy Snow
8:15 AM 32.0°F 32.0°F 100% 29.76 in - Calm Calm - 0.02 in Snow Heavy Snow
8:35 AM 32.0°F 32.0°F 100% 29.76 in - SSW 3.5 mph - 0.04 in   Unknown
8:55 AM 33.8°F 33.8°F 100% 29.77 in - Calm Calm - 0.05 in Rain Light Rain
9:15 AM 33.8°F 33.8°F 100% 29.77 in - South 6.9 mph - N/A Rain Light Rain
9:35 AM 35.6°F 35.6°F 100% 29.77 in 10.0 miles South 4.6 mph - N/A Rain Light Rain
10:15 AM 35.6°F 35.6°F 100% 29.77 in 10.0 miles SSW 5.8 mph - N/A   Partly Cloudy
10:35 AM 37.4°F 37.4°F 100% 29.78 in 10.0 miles SSW 5.8 mph - N/A   Clear
10:55 AM 37.4°F 37.4°F 100% 29.79 in 10.0 miles SSW 9.2 mph - N/A   Clear
11:15 AM 37.4°F 37.4°F 100% 29.79 in 10.0 miles SW 8.1 mph - N/A   Partly Cloudy
11:35 AM 37.4°F 37.4°F 100% 29.79 in 10.0 miles SW 8.1 mph - N/A   Partly Cloudy
11:55 AM 39.2°F 37.4°F 93% 29.79 in 10.0 miles SW 5.8 mph - N/A   Clear
12:15 PM 39.2°F 37.4°F 93% 29.80 in 10.0 miles SW 8.1 mph - N/A   Clear
12:35 PM 39.2°F 37.4°F 93% 29.80 in 10.0 miles SW 9.2 mph - N/A   Clear
12:55 PM 39.2°F 37.4°F 93% 29.80 in 10.0 miles SSW 5.8 mph - N/A   Partly Cloudy
1:15 PM 39.2°F 37.4°F 93% 29.81 in 10.0 miles SW 6.9 mph 17.3 mph N/A   Partly Cloudy
1:35 PM 39.2°F 37.4°F 93% 29.82 in 10.0 miles SSW 6.9 mph - N/A   Partly Cloudy
1:55 PM 39.2°F 37.4°F 93% 29.82 in 10.0 miles SW 8.1 mph - N/A   Scattered Clouds
2:15 PM 39.2°F 37.4°F 93% 29.83 in 10.0 miles SW 8.1 mph - N/A   Mostly Cloudy
2:35 PM 39.2°F 37.4°F 93% 29.83 in 10.0 miles SW 8.1 mph 16.1 mph N/A   Scattered Clouds
2:55 PM 39.2°F 37.4°F 93% 29.84 in 10.0 miles SW 5.8 mph - N/A   Partly Cloudy
3:15 PM 39.2°F 37.4°F 93% 29.85 in 10.0 miles SW 6.9 mph - N/A   Clear
3:35 PM 39.2°F 35.6°F 87% 29.85 in 10.0 miles SW 5.8 mph - N/A   Clear
3:55 PM 39.2°F 35.6°F 87% 29.87 in 10.0 miles SW 5.8 mph - N/A   Partly Cloudy
4:15 PM 37.4°F 35.6°F 93% 29.88 in 10.0 miles SSW 5.8 mph - N/A   Partly Cloudy
4:35 PM 37.4°F 35.6°F 93% 29.88 in 10.0 miles SSW 4.6 mph - N/A   Clear
4:55 PM 37.4°F 35.6°F 93% 29.89 in 10.0 miles SW 4.6 mph - N/A   Clear
5:15 PM 37.4°F 35.6°F 93% 29.89 in 10.0 miles SW 5.8 mph - N/A   Clear
5:35 PM 37.4°F 35.6°F 93% 29.89 in 10.0 miles Calm Calm - N/A   Partly Cloudy
5:55 PM 37.4°F 35.6°F 93% 29.89 in 10.0 miles SSW 6.9 mph - N/A   Partly Cloudy
6:15 PM 37.4°F 33.8°F 87% 29.90 in 10.0 miles SSW 3.5 mph - N/A   Clear
6:35 PM 37.4°F 33.8°F 87% 29.90 in 10.0 miles Calm Calm - N/A   Clear
6:55 PM 35.6°F 32.0°F 87% 29.90 in 10.0 miles South 5.8 mph - N/A   Clear
7:15 PM 35.6°F 32.0°F 87% 29.91 in 10.0 miles Calm Calm - N/A   Clear
7:35 PM 35.6°F 32.0°F 87% 29.91 in 10.0 miles Calm Calm - N/A   Clear
7:55 PM 35.6°F 32.0°F 87% 29.92 in 10.0 miles Calm Calm - N/A   Clear
8:15 PM 35.6°F 32.0°F 87% 29.92 in 10.0 miles South 4.6 mph - N/A   Clear
8:35 PM 35.6°F 32.0°F 87% 29.92 in 10.0 miles South 3.5 mph - N/A   Clear
8:55 PM 35.6°F 32.0°F 87% 29.92 in 10.0 miles South 4.6 mph - N/A   Clear
9:15 PM 35.6°F 32.0°F 87% 29.93 in 10.0 miles WSW 6.9 mph - N/A   Clear
9:35 PM 33.8°F 32.0°F 93% 29.93 in 10.0 miles SW 3.5 mph - N/A   Clear
9:55 PM 35.6°F 32.0°F 87% 29.94 in 10.0 miles Calm Calm - N/A   Clear
10:15 PM 33.8°F 32.0°F 93% 29.94 in 10.0 miles Calm Calm - N/A   Clear
10:35 PM 33.8°F 32.0°F 93% 29.95 in 10.0 miles Calm Calm - N/A   Clear
10:55 PM 32.0°F 32.0°F 100% 29.95 in 10.0 miles Calm Calm - N/A   Clear
Moon Phase
Jan. 09 Jan. 11 Jan. 18 Jan. 26 Feb. 03
Sunrise:07:53 AM (PST) Moon Rise:05:39 AM (PST)1/9
Sunset:04:39 PM (PST) Moon Set:02:46 PM (PST)1/9

Copyright © 2014 The Weather Underground, Inc.